Location: Devore Heights
(34.2372°N, 117.4156°W)
Time: 18:31:36
(UTC+00:00)

deb Explorer IX - Pass Details

Date: 20 September 2024
Orbit: 502 x 816 km, 38.7° (Epoch: 15 October)

Event Time Altitude Azimuth Distance (km) Brightness Sun altitude
Rises 23:59:36 0° 217° (SW) 3,143 ? 21.7°
Reaches altitude 10° 00:02:09 10° 207° (SSW) 2,277 ? 21.2°
Maximum altitude 00:06:58 33° 145° (SE) 1,320 ? 20.3°
Drops below altitude 10° 00:12:05 10° 83° (E) 2,433 ? 19.2°
Sets 00:14:53 0° 74° (ENE) 3,391 ? 18.7°
